Belgrade, MT

12:27 AM MST on January 19, 2017 (GMT -0700)
Gallatin

Weather History for KBZN - January, 2013

Change the Weather History Date:

Tuesday, January 8, 2013

  Actual Average Record
Temperature  
Mean Temperature 39 °F 23 °F  
Max Temperature 44 °F 35 °F 50 °F (2009)
Min Temperature 33 °F 10 °F -34 °F (1937)
Degree Days  
Heating Degree Days 26 42  
Month to date heating degree days 394 344  
Since 1 July heating degree days 3621 3579  
Cooling Degree Days 0 0  
Month to date cooling degree days 0 0  
Year to date cooling degree days 0 0  
Moisture  
Dew Point 21 °F    
Average Humidity 57    
Maximum Humidity 69    
Minimum Humidity 44    
Precipitation  
Precipitation 0.00 in 0.01 in 0.29 in (1942)
Month to date precipitation 0.00 0.12  
Year to date precipitation 0.00 0.12  
Snow  
Snow 0.00 in 0.20 in 6.60 in (1942)
Month to date snowfall 0.0 1.1  
Since 1 July snowfall 14.6 14.5  
Snow Depth 2.00 in    
Sea Level Pressure  
Sea Level Pressure 29.99 in    
Wind  
Wind Speed 13 mph (WSW)    
Max Wind Speed 28 mph    
Max Gust Speed 36 mph    
Visibility 10 miles    
Events      
T = Trace of Precipitation, MM = Missing Value Source: NWS Daily Summary

Daily Weather History Graph

Daily Weather History Graph

Search for Another Location

Airport or City:

Trip Planner

Search our weather history database for the weather conditions in past years. The results will help you decide how hot, cold, wet, or windy it might be!

Date:

Astronomy

Jan. 08, 2013 Rise Set
Actual Time 8:04 AM MST 4:58 PM MST
Civil Twilight 7:30 AM MST 5:32 PM MST
Nautical Twilight 6:53 AM MST 6:09 PM MST
Astronomical Twilight 6:17 AM MST 6:45 PM MST
Moon 4:40 AM MST (1/8) 2:04 PM MST (1/8)
Length of Visible Light 10h 01m
Length of Day
8h 53m
Waning Crescent, 13% of the Moon is Illuminated
Jan 8
Waning Crescent
Jan 11
New
Jan 18
First Quarter
Jan 26
Full
Feb 3
Last Quarter

Hourly Weather History & Observations

Time (MST) Temp. Windchill Dew Point Humidity Pressure Visibility Wind Dir Wind Speed Gust Speed Precip Events Conditions
12:56 AM 37.9 °F 28.2 °F 21.9 °F 53% 29.83 in 10.0 mi WSW 18.4 mph - N/A   Clear
1:56 AM 39.0 °F 29.0 °F 21.9 °F 50% 29.83 in 10.0 mi WSW 20.7 mph 28.8 mph N/A   Mostly Cloudy
2:56 AM 37.9 °F 28.2 °F 21.0 °F 51% 29.86 in 10.0 mi WSW 18.4 mph 26.5 mph N/A   Overcast
3:56 AM 37.9 °F 26.8 °F 19.9 °F 48% 29.88 in 10.0 mi WSW 24.2 mph 33.4 mph N/A   Partly Cloudy
4:56 AM 37.0 °F 25.6 °F 19.9 °F 50% 29.88 in 10.0 mi WSW 24.2 mph - N/A   Partly Cloudy
5:56 AM 37.9 °F 28.2 °F 19.0 °F 47% 29.92 in 10.0 mi WSW 18.4 mph 28.8 mph N/A   Partly Cloudy
6:56 AM 37.0 °F 28.5 °F 18.0 °F 46% 29.94 in 10.0 mi West 13.8 mph - N/A   Partly Cloudy
7:56 AM 37.0 °F 26.4 °F 18.0 °F 46% 29.94 in 10.0 mi West 20.7 mph - N/A   Clear
8:56 AM 36.0 °F 25.6 °F 18.0 °F 48% 30.01 in 10.0 mi West 18.4 mph 26.5 mph N/A   Partly Cloudy
9:56 AM 36.0 °F 28.0 °F 18.0 °F 48% 30.04 in 10.0 mi West 11.5 mph - N/A   Clear
10:56 AM 37.0 °F 32.4 °F 18.0 °F 46% 30.06 in 10.0 mi WSW 5.8 mph 17.3 mph N/A   Partly Cloudy
11:56 AM 37.9 °F 34.4 °F 18.0 °F 45% 30.06 in 10.0 mi WSW 4.6 mph - N/A   Overcast
12:56 PM 37.9 °F 28.2 °F 19.0 °F 47% 30.04 in 10.0 mi SW 18.4 mph 24.2 mph N/A   Overcast
1:56 PM 39.0 °F 31.0 °F 19.9 °F 46% 30.03 in 10.0 mi SW 13.8 mph - N/A   Overcast
2:56 PM 39.0 °F 31.4 °F 21.9 °F 50% 30.04 in 10.0 mi WSW 12.7 mph - N/A   Overcast
3:56 PM 37.9 °F 32.1 °F 21.9 °F 53% 30.06 in 10.0 mi WSW 8.1 mph - N/A   Overcast
4:56 PM 35.1 °F 30.1 °F 24.1 °F 64% 30.07 in 10.0 mi NE 5.8 mph - N/A   Overcast
5:56 PM 33.1 °F 26.9 °F 24.1 °F 70% 30.06 in 10.0 mi ENE 6.9 mph - N/A   Overcast
6:56 PM 35.1 °F 31.0 °F 21.9 °F 59% 30.05 in 10.0 mi ESE 4.6 mph - N/A   Overcast
7:56 PM 35.1 °F 31.0 °F 21.9 °F 59% 30.06 in 10.0 mi NNW 4.6 mph - N/A   Overcast
8:56 PM 34.0 °F - 21.0 °F 59% 30.07 in 10.0 mi Calm Calm - N/A   Mostly Cloudy
9:56 PM 41.0 °F 34.3 °F 25.0 °F 53% 30.04 in 10.0 mi SW 11.5 mph - N/A   Overcast
10:56 PM 41.0 °F 35.2 °F 26.1 °F 55% 30.05 in 10.0 mi SW 9.2 mph - N/A   Scattered Clouds
11:56 PM 43.0 °F 36.8 °F 25.0 °F 49% 30.03 in 10.0 mi SW 11.5 mph - N/A   Clear